Theta_e
342 343 345 344 341 340 341 336 334 330 326 325 327 329 330 330 329 330 331 323 326 327 336 337 335 333 332 331 327 322 324 322 323 323 325 327 328 325 324 325 324 324 325
336 341 344 343 341 341 341 338 336 332 327 323 326 327 325 325 327 329 326 324 327 327 325 327 326 323 323 323 322 322 323 323 323 323 325 328 327 325 324 324 324 325 325
336 339 342 342 341 341 341 339 338 335 330 324 323 322 323 326 327 326 322 328 328 327 325 324 322 323 323 322 323 323 323 324 324 325 325 325 325 325 324 324 324 325 325
337 338 341 341 341 341 342 341 340 338 334 327 322 323 325 325 325 322 326 329 327 324 324 324 323 324 324 323 323 323 325 329 333 334 327 327 326 326 326 326 326 326 326
337 337 343 341 341 342 342 341 341 339 337 330 323 324 323 324 323 322 327 329 327 326 323 323 323 324 323 323 324 332 334 339 340 338 338 334 335 327 327 328 327 327 327
337 339 344 343 342 343 342 341 342 341 339 334 327 323 323 324 325 323 325 327 327 327 324 322 323 323 324 325 331 340 341 344 341 338 339 339 336 327 327 327 328 328 328
338 337 344 344 343 343 343 341 342 342 339 337 331 324 324 324 328 325 325 325 327 327 324 322 323 325 327 327 338 340 343 344 343 342 341 339 337 339 332 327 327 328 328
344 337 343 344 344 344 343 342 342 343 341 339 334 328 324 324 328 329 329 329 328 327 324 322 323 325 328 328 336 339 344 342 342 341 340 341 342 342 339 332 329 328 328
347 339 343 345 345 345 344 343 342 343 343 339 337 333 327 325 325 330 332 332 330 326 322 322 323 324 326 328 329 340 343 340 341 340 340 339 339 339 337 335 332 331 331
349 343 343 346 346 345 344 343 342 342 343 341 338 337 332 327 327 326 327 329 329 324 321 322 323 323 325 327 327 333 340 339 340 339 338 338 338 337 337 337 335 329 331
352 347 343 343 343 344 344 342 340 342 343 342 338 338 336 331 327 327 327 326 325 323 322 323 324 326 325 327 329 328 328 332 339 338 339 337 337 337 337 337 332 329 327
354 347 344 343 343 343 344 342 338 340 342 343 341 339 336 333 331 326 327 328 325 323 322 322 323 324 327 329 329 329 328 329 330 331 334 331 331 335 336 333 333 330 329
356 348 344 342 343 344 343 341 335 337 340 341 340 337 336 334 331 328 324 325 327 325 323 323 322 323 323 324 324 325 325 325 325 325 332 337 335 330 335 334 333 332 329
356 354 349 347 342 342 343 336 335 337 339 340 339 337 335 332 330 327 324 324 325 327 328 337 335 330 326 324 323 322 323 322 321 323 327 336 337 333 334 334 334 332 328
351 353 353 351 347 340 340 334 334 334 337 338 338 337 334 332 330 328 325 333 335 335 341 343 343 341 336 331 335 334 331 335 334 332 325 331 337 337 337 334 333 331 327
348 351 351 350 348 343 342 336 335 336 334 336 336 335 334 332 337 330 333 337 340 340 342 343 343 342 341 340 339 339 337 335 334 332 335 332 332 334 336 335 333 330 330
338 345 347 349 345 342 339 337 337 336 336 340 335 337 335 344 341 340 340 342 342 342 342 343 342 341 339 339 338 337 337 332 336 337 337 337 335 335 335 334 334 334 333
330 333 345 345 345 341 338 338 340 344 344 340 342 343 345 345 344 343 342 342 341 343 342 340 341 342 340 339 337 335 335 333 331 332 336 336 336 337 337 337 336 334 333
322 336 344 343 343 341 338 340 341 340 343 343 345 343 340 344 344 341 344 344 344 342 341 342 342 340 339 337 337 335 334 331 331 327 327 329 331 332 334 336 335 332 333
327 340 345 343 342 341 341 341 339 341 343 344 342 342 341 338 339 339 338 335 333 337 335 337 336 337 334 331 330 330 332 332 329 329 326 329 332 330 332 332 331 329 329
337 345 346 341 341 341 340 339 342 343 342 341 339 340 340 338 338 340 334 331 333 335 334 333 333 334 333 333 334 332 330 323 321 326 324 324 325 326 327 329 329 330 329
343 342 342 340 337 337 334 341 343 343 341 337 337 338 333 337 334 332 328 330 333 333 328 330 332 334 334 333 332 330 324 319 319 320 321 323 325 327 327 328 330 329 330
343 339 336 336 336 336 337 341 342 341 339 337 340 341 334 334 330 324 328 328 328 330 330 331 334 335 334 332 330 322 323 322 321 320 320 324 325 326 326 326 325 327 328
340 337 334 333 334 339 338 337 340 338 337 337 339 339 338 336 330 333 334 333 332 332 334 334 334 333 332 329 324 322 321 321 322 323 323 323 326 324 326 326 327 326 326
337 336 335 336 336 337 337 337 333 334 339 339 340 340 338 334 334 332 330 329 329 328 327 328 331 333 332 330 330 330 327 325 326 329 330 329 328 325 326 327 329 328 325
338 336 336 339 340 340 337 337 339 340 340 339 337 335 333 331 330 328 327 326 325 324 324 323 323 325 326 327 328 329 329 328 328 327 327 327 327 327 327 327 326 327 328
Wind_Speed
26 27 28 26 25 23 20 18 17 15 14 14 14 14 13 12 12 12 13 14 14 13 13 13 12 11 10 9 10 10 10 11 10 10 10 10 10 10 11 12 11 11 12
24 30 29 28 26 23 20 18 17 15 13 14 16 15 14 14 14 14 15 16 14 12 12 11 10 10 10 10 11 11 12 11 11 11 11 9 9 9 10 10 10 10 11
28 31 31 29 27 24 21 18 16 15 13 13 15 14 15 14 15 15 16 15 13 12 11 10 10 10 10 11 11 12 12 13 13 12 12 10 10 9 9 9 9 10 10
28 31 32 30 28 25 22 19 16 14 12 11 13 14 15 16 16 16 16 14 11 11 10 11 10 10 10 11 11 12 14 14 12 11 11 10 9 9 8 7 8 8 9
30 30 32 31 29 26 23 20 17 14 12 10 11 13 14 15 16 16 15 13 11 9 9 10 10 9 9 10 12 13 13 10 8 6 6 8 9 6 7 5 5 6 7
30 31 32 30 28 25 22 20 17 15 12 10 9 11 12 14 15 15 14 12 10 8 9 10 10 10 10 11 13 14 11 8 6 4 5 5 6 6 4 4 3 4 4
30 29 30 29 26 24 22 20 18 15 13 10 9 9 11 13 13 13 12 11 9 8 8 10 11 11 10 12 15 13 10 7 4 2 2 3 3 4 4 3 3 2 1
21 27 29 28 25 23 22 20 18 16 14 12 10 9 11 12 12 11 10 9 8 7 7 9 11 12 11 12 14 13 10 6 4 2 1 1 1 3 4 4 5 5 5
22 26 29 28 26 23 22 20 18 16 15 13 10 8 9 10 11 12 10 8 6 5 6 7 9 11 11 11 13 13 10 7 6 4 2 4 4 4 5 6 8 9 8
25 27 28 28 26 25 23 20 19 18 16 14 12 9 8 7 9 10 10 9 7 5 5 6 7 8 10 10 12 14 13 10 9 8 6 6 8 9 8 9 9 11 12
23 25 27 26 26 24 22 20 19 18 17 15 13 10 8 7 7 9 9 9 8 7 7 7 7 8 9 10 11 12 13 12 12 10 11 11 11 11 12 12 12 13 14
24 28 29 27 25 23 22 20 19 19 18 17 14 12 10 9 8 7 9 9 8 7 7 7 7 8 10 10 10 11 12 13 14 14 15 15 17 17 16 15 15 14 15
26 27 28 26 25 25 23 19 19 19 19 18 17 14 12 11 9 9 9 10 10 8 6 5 5 7 8 9 10 11 13 14 16 17 15 16 20 22 20 19 17 18 18
24 24 26 24 26 24 20 18 17 18 19 20 19 16 15 12 10 9 9 9 10 8 5 3 3 6 8 9 10 12 14 15 17 18 21 19 18 18 22 21 20 19 19
28 29 25 23 25 23 22 22 19 17 21 20 18 15 15 12 10 9 9 7 7 8 6 3 6 6 7 10 11 11 13 13 14 15 20 22 22 21 22 22 21 22 21
31 29 28 28 26 24 23 28 24 29 24 20 19 17 13 11 9 10 9 9 8 7 8 7 8 10 10 13 14 14 14 16 19 22 22 22 26 26 25 24 23 23 26
23 24 26 24 24 23 25 27 29 26 24 19 18 15 13 13 12 10 9 7 9 10 11 11 13 14 16 17 17 17 19 26 29 28 26 25 26 27 27 27 30 33 33
22 24 27 23 25 26 26 30 28 25 17 18 19 17 15 15 12 8 8 9 9 12 13 13 17 20 21 21 23 26 24 27 31 32 30 31 33 32 30 30 31 33 35
19 24 28 26 29 30 29 30 27 21 20 20 21 16 11 13 12 9 7 11 14 14 19 20 20 21 22 23 27 32 32 33 31 23 32 33 37 38 42 38 37 38 40
22 29 34 32 31 33 30 29 25 22 20 17 15 10 10 9 11 9 12 13 15 19 16 19 19 18 18 22 25 24 25 26 28 33 27 27 32 35 36 41 33 34 44
28 34 38 34 31 28 27 23 21 23 17 11 10 13 10 9 11 11 11 12 16 14 12 14 15 17 19 17 19 21 23 27 29 26 30 28 26 28 23 25 30 34 36
31 34 34 30 26 22 21 22 19 16 11 9 10 10 9 9 9 10 12 12 13 13 12 15 16 17 18 20 19 25 24 25 23 18 18 20 21 18 24 22 21 23 27
35 33 31 28 21 22 23 20 20 15 15 15 15 14 14 13 11 11 12 14 13 14 14 14 15 15 19 19 18 17 10 9 22 27 23 19 21 20 23 22 19 18 14
32 33 31 21 23 24 22 21 17 18 18 18 19 16 14 13 12 13 11 10 11 12 14 16 17 18 19 19 19 20 18 23 17 23 30 26 23 27 29 30 28 26 26
37 34 29 30 26 22 21 19 20 22 21 20 17 14 13 12 10 10 9 9 10 11 13 15 15 17 20 22 22 23 27 29 30 26 30 34 34 34 36 35 34 31 30
32 31 28 22 22 20 21 21 21 20 20 18 16 14 12 11 11 9 10 10 11 13 15 16 18 19 21 23 24 25 24 20 23 27 31 29 35 33 34 37 41 39 38
Wind_Direction
177 171 169 170 170 171 167 160 155 154 157 165 167 161 156 153 151 150 151 149 145 141 137 133 134 134 131 125 116 115 115 105 105 104 97 96 102 107 105 105 102 101 98
168 172 172 172 171 172 169 162 155 152 153 157 162 162 162 159 156 156 156 152 147 142 136 138 140 138 136 127 123 120 116 112 109 103 99 98 95 97 93 98 99 98 96
173 171 174 173 173 174 172 167 162 155 152 153 159 160 161 159 158 159 157 155 152 146 142 142 141 140 138 133 129 126 123 118 111 107 106 97 95 92 92 97 101 102 100
176 174 174 174 176 176 174 171 167 158 150 150 155 159 160 161 160 160 160 158 153 147 146 145 146 147 141 139 137 133 133 125 116 109 102 97 90 86 87 90 96 99 97
179 178 176 175 178 178 175 173 170 165 156 151 154 160 160 161 160 163 164 163 159 153 149 149 151 153 150 149 147 142 142 136 136 125 106 95 81 76 84 86 90 97 99
179 179 178 178 179 178 176 175 174 172 167 157 154 160 161 162 163 167 170 173 169 166 159 156 156 159 159 159 156 149 147 142 145 128 106 91 77 74 58 45 51 78 90
179 180 180 181 181 179 180 178 178 176 172 165 159 159 166 166 167 170 171 172 172 172 169 166 164 165 168 170 167 165 159 153 154 137 113 104 69 52 44 16 338 341 29
181 183 182 182 184 184 184 185 184 181 181 179 172 168 172 172 173 173 175 176 177 181 181 176 173 172 174 180 182 179 176 177 186 224 275 150 66 354 348 343 311 302 301
183 188 186 184 184 186 189 189 188 187 188 189 186 180 176 182 183 182 182 185 186 189 188 185 184 181 182 187 193 194 196 204 209 236 266 291 281 283 306 319 310 306 301
186 191 188 186 187 190 191 191 192 191 191 194 194 191 188 188 198 199 199 197 195 192 194 190 193 195 195 199 205 209 212 218 227 236 255 280 287 270 277 291 298 307 303
186 192 191 191 192 195 196 197 197 196 198 199 201 202 205 203 206 214 216 214 206 199 195 194 194 199 208 213 214 220 228 232 234 253 255 274 278 275 273 276 290 295 304
186 187 189 192 193 195 199 200 200 203 205 208 212 217 220 220 219 222 226 228 224 218 215 214 212 214 219 221 224 230 241 248 253 253 252 263 268 272 274 266 277 282 290
191 190 192 193 197 199 202 204 206 209 213 216 219 224 225 224 226 227 228 228 228 228 236 248 250 257 262 265 266 265 265 266 268 268 263 272 276 262 267 266 269 279 285
205 205 193 197 204 203 200 204 212 216 219 221 223 223 227 226 230 235 232 222 219 217 213 226 266 270 271 270 266 263 265 268 270 273 268 272 274 266 268 272 269 273 279
216 207 204 204 201 199 203 192 220 224 231 229 230 229 236 233 225 224 217 212 205 195 191 227 258 266 252 250 268 280 282 287 283 285 278 272 275 266 271 278 274 272 278
211 214 210 207 216 218 221 224 216 212 218 220 229 234 225 231 226 202 197 204 202 203 216 227 238 237 241 242 244 254 261 262 265 264 267 271 274 274 272 273 268 262 269
199 208 214 214 208 210 214 234 213 213 215 217 221 225 204 196 203 189 197 205 228 240 245 257 264 263 268 272 273 266 267 282 271 261 256 253 265 272 275 274 273 273 274
199 208 205 211 211 210 220 217 215 214 211 210 205 193 195 210 216 219 219 237 255 251 255 263 270 267 269 271 271 273 285 287 279 279 276 271 272 273 268 270 272 273 275
210 204 199 202 207 218 216 218 215 224 220 209 212 211 210 224 237 240 247 266 269 264 274 264 267 272 276 286 284 285 283 284 290 293 288 283 271 274 270 269 266 272 275
208 205 195 199 210 217 218 222 226 209 218 226 220 207 220 245 249 248 250 263 269 273 275 263 270 274 283 295 286 280 279 287 288 283 294 290 275 279 271 267 273 273 268
199 205 200 200 209 214 218 209 204 209 210 203 222 230 232 216 226 237 239 259 254 271 280 276 285 288 293 296 290 294 290 292 296 287 297 276 275 292 277 280 284 285 282
193 196 199 202 204 202 205 191 205 215 215 207 212 206 207 211 215 243 255 259 257 262 271 281 284 283 282 290 285 293 298 300 299 296 301 279 281 276 270 285 274 292 298
196 194 196 195 193 187 186 204 212 209 195 198 211 225 217 222 245 251 249 255 254 257 266 267 273 274 274 278 280 277 286 282 297 295 291 282 280 279 281 282 282 292 293
191 194 192 173 195 190 193 192 193 207 209 213 220 217 220 238 254 261 254 251 254 257 258 260 262 261 262 267 270 271 274 274 288 295 288 280 280 281 286 286 288 286 286
191 193 189 185 186 186 189 199 206 208 214 221 224 219 222 243 237 232 243 253 253 257 257 258 260 258 258 263 272 274 274 277 279 283 287 291 287 277 281 289 296 292 285
181 178 180 186 192 198 217 212 219 222 217 209 207 216 221 218 218 232 241 245 251 255 259 262 263 264 265 267 269 272 274 282 284 278 281 290 285 287 287 283 287 285 289